Погода в Тальке

Беларусь     53°22′07″N   28°20′36″E
темп.,
°C
ветер,
м/с
пор.,
м/с
влажн.,
%
обл.,
%
осадки,
мм/ч
давл.,
гПа
погр.,
м
6 марта, сб
сб600:00−5зсз22620 0.0 102134
03:00−5зюз24630 0.0 1022119
06:00−4з387069 0.0 1022459
09:00−5зсз488782 0.0 1023403
12:00−2ссз4671100 0.1 10241022
15:00−1сз464967 0.2 10231477
18:00−2з47620 0.0 1023931
21:00−4зюз411780 0.0 1022479
7 марта, вс
вс700:00−3зюз514701 0.0 1019641
03:00−2зюз7156744 0.0 1015851
06:00−1зюз81675100 0.0 10101130
09:00−1зюз91885100 0.1 10071345
12:00+1з101784100 0.1 10061287
15:00+1з91594100 0.9 10061076
18:00+1зсз71466100 1.0 10061646
21:00−2зсз6146467 1.1 10071072
8 марта, пн
пн800:00−3зсз512690 0.0 1008974
03:00−4зсз5117639 0.0 1009924
06:00−5зсз4108352 0.0 1009682
09:00−4сз488367 0.0 1011636
12:00−2сз356897 0.1 1012944
15:00−1сз355998 0.1 10131201
18:00−2сз3562100 0.1 10131158
21:00−4ссз368594 0.1 1015383
9 марта, вт
вт900:00−5с3675100 0.2 1016608
03:00−6с4785100 0.2 1017617
06:00−7с477999 0.1 1019736
09:00−7с367998 0.1 1022615
12:00−5с455860 0.0 1023902
15:00−4ссз344638 0.0 1023992
18:00−4ссз235022 0.0 1023762
21:00−6зсз226813 0.0 102550
10 марта, ср
ср1000:00−7юз23681 0.0 102585
03:00−6юз377439 0.0 1024281
06:00−6зюз3968100 0.0 1024388
09:00−5зюз41062100 0.0 1023551
12:00−2зюз595191 0.0 1023959
15:000зюз694964 0.0 10211120
18:00−1з596078 0.0 1020953
21:00−3зюз4106980 0.0 1020477